Tracking 34719 objects as of 12-Jul-2026
HD Live streaming from Space Station
objects crossing your sky now

ORBCOMM FM 4

Track ORBCOMM FM 4 now!
10-day predictions
ORBCOMM FM 4 is classified as:


NORAD ID: 25159
Int'l Code: 1998-007C
Perigee: 749.6 km
Apogee: 809.6 km
Inclination: 108.0 °
Period: 100.3 minutes
Semi major axis: 7150 km
RCS: 1.0023 m2 (large)
Launch date: February 10, 1998
Source: ORBCOMM (ORB)
Launch site: AIR FORCE WESTERN TEST RANGE (AFWTR)
Your satellite tracking list
Your tracking list is empty




NASA's NSSDC Master Catalog

Two Line Element Set (TLE):
1 25159U 98007C   26192.84966608  .00000357  00000-0  16782-3 0  9995
2 25159 107.9632 220.1800 0041911 282.5727  77.0728 14.35780960480134
Source of the keplerian elements: AFSPC